Aérodrome :
LOGIN :

S'inscrire | Disclaimer

   EN    FR    IT 

 










Légende :    VFR   VFR Marginal   IFR   IFR Intensif   IFR Très Intensif
Visi : 
Plafond : 
>= 8 km
>= 3000ft
5 à 8 km
1000 à 3000 ft
1500m à 5 km
500 à 1000 ft
800 à 1500m
200 à 500 ft
< 800m
< 200 ft
Symboles :   Orages  Brouillard  Fortes neiges  Fortes précipitations  Vent > 20 kt
SIGMETs :   Divers  Orages  Givrage  Turbulence  Onde Orograph.  Cendres Volcan.







- Altitude de l'aérodrome : 1649 ft
- Code IATA : HHN


EDFH - Frankfurt-Hahn Rhineland-Palatinate

DERNIER METAR :
  • 141020Z 27010KT 240V300 9999 BKN010 16/14 Q1017

METARs EXPIRÉS :
  • 140950Z 26010KT 240V300 9999 SCT010 BKN026 16/14 Q1016
  • 140920Z 26010KT 9999 SCT008 SCT030 16/14 Q1016
  • 140850Z 27011KT 9999 BKN008 15/13 Q1016
  • 140820Z 27010KT 9999 BKN006 15/13 Q1016
  • 140750Z 26012KT 9999 BKN006 14/13 Q1015

TAF TAF EDFH
Valide du 14 à 06h jusqu'au 15 à 06h UTC


140500Z 1406/1506 27009KT 9999 BKN006
PROB30
TEMPO 1406/1408 4500 BR BKN003
BECMG 1408/1410 SCT015
Pas de NOTAMs connus pour ce terrain.



MET'MAP, la Météo Aéronautique d'un coup d'oeil ! - Copyright ORBIFLY Décembre 2007 - Disclaimer

ORBIFLY MET'MAP TEAM :

Programmation & Développement : Alexandra Zaïnal
Conception & Développement : Baudouin d'Aumeries
Co-Programmation & Développement : Marc-Olivier Méhu
Soutien technique & logistique : Manuel Goepfert

Contact : metmap@orbifly.com




SOURCES & CREDITS :

   NOAA